Погода в Ванаваре

Погода в Ванаваре : погода сейчас, прогноз погоды и архив. Всё, что Вы хотите узнать о погоде в Ванаваре!

Хотите узнать прогноз погоды в Ванаваре? Тогда Вам сюда: Погода в Ванаваре

Поиск расширенной информации на нашем сайте:

Другие новости

Новости СМИ2

Главная страница сайта

Новости сайта

03.07.2017

Напоминаем, что на нашем специализированном сайте Метеоцентр.Азия вы можете получить высокодетализированные автоматические прогнозы погоды по пунктам России, СНГ и мира в авиационном формате (включающие направление и скорость ветра, видимость, явления погоды, количество и форму облачности, нижнюю и верхнюю границу облачности).

Рекомендуем: Заправка картриджей Xerox Фрунзенская.

Погода в Ванаваре - сегодня

Время (UTC), дата Ветер
(°,м/с) 
Видим.   Явления Облачность Т
(°С)
Тd
(°С)
f(%) Тe
(°С)
Pmin
(гПа)
dP
(гПа)
Po
(мм)
O2
(г/м3)
Тmin Tmax R s Состояние
почвы
18 22.07.17 080 (В) 20000 м    3/0 верхняя 
[Ci fib]
+5.4 +4 91 +6  1019.4  0.4  741  292           
21 22.07.17 тихо ()   2000 м  дымка  10/10 100 м 
[St]
+3 +2.3 95 +3  1019.7  741  295           
00 23.07.17 220 (ЮЗ) 20000 м  {туман}  3/0 верхняя 
[Ci fib]
+10.6 +7.2 79 +12  1018.9  0.1  741  286  +2.8        сухая 
03 23.07.17 350 (С) 20000 м    1/0 верхняя 
[Ci fib]
+23.3 +4.8 30 +23  1016.5  -1  740  274           
06 23.07.17 270 (З) 20000 м    1/0 верхняя 
[Ci fib]
+26.7 +3.8 23 +27  1014.7  -1.5  739  271           
09 23.07.17 150 (ЮВ) 20000 м    1/0 верхняя 
[Ci fib]
+27.4 +2.6 20 +27  1013  -1.5  738  270           
12 23.07.17 230 (ЮЗ) 20000 м    3/0 верхняя 
[Ci fib]
+26.3 +4.1 24 +26  1012.5  -0.6  737  270    +28.3       
15 23.07.17 240 (ЮЗ) 20000 м    5/0 средняя, верхняя 
[Ac trans|Ci fib]
+15.1 +10.4 73 +18  1013.6  737  280           
18 23.07.17 220 (ЮЗ) 20000 м    8/0 средняя, верхняя 
[Ac trans|Ci fib]
+9.7 +8.6 93 +11  1014.3  0.1  737  285           
21 23.07.17 210 (ЮЗ) 20000 м    4/0 средняя, верхняя 
[Ac trans|Ci fib]
+8.4 +7.2 92 +9  1014.1  -0.4  737  287           
00 24.07.17 210 (ЮЗ) 20000 м    5/0 средняя, верхняя 
[Ac trans|Ci fib]
+16 +9.4 65 +18  1013.3  0.1  737  279  +7.2        сухая 
03 24.07.17 240 (ЮЗ) 20000 м    8/3 1000 м средняя, верхняя 
[Cu hum|Ac trans|Cs]
+25.5 +9.6 37 +27  1011.4  -0.9  736  270           
06 24.07.17 310 (СЗ) 20000 м    10/4 1000 м верхняя 
[Cu Sc|Cs]
+28.8 +7.5 26 +29  1009.6  -1.4  735  267           
09 24.07.17 310 (СЗ) 2{10}  20000 м  гроза без осадков{ливн. осадки}  10/8 600 м кучево-дожд., средняя, верхняя 
[Cb cap|Ac trans|Ci fib]
+24.8 +12.3 46 +30  1009.6  -0.4  735  269           
12 24.07.17 тихо ()   20000 м  {гроза, ливн. осадки}  10/3 1000 м средняя, верхняя 
[Sc|Ac trans|Ci fib]
+24.1 +12.5 48 +29  1009  -0.6  735  270    +30.2     
15 24.07.17 тихо ()   20000 м    10/3 1000 м средняя, верхняя 
[Sc|Ac trans|Cs]
+16 +14.5 91 +24  1010.4  0.5  735  277           
18 24.07.17 200 (Ю) 20000 м  слаб. ливневой дождь  10/8 600 м кучево-дожд., верхняя 
[Cb cap|Cs]
+15.4 +14.9 97 +26  1010.5  0.1  735  277           
21 24.07.17 тихо ()   10 км  дымка{гроза, ливн. осадки}  10/5 600 м кучево-дожд., верхняя 
[Cb cap|Cs]
+12.9 +11.7 92 +17  1010.5  -0.3  735  280           
00 25.07.17 060 (СВ) 20000 м  {гроза, ливн. осадки}  6/1 1000 м средняя, верхняя 
[Sc|Ac trans|Ci fib]
+15.7 +14.3 91 +25  1010.1  -0.1  735  277  +12.1      влажная 
03 25.07.17 080 (В) 20000 м    ясно 
+24.8 +13.5 49 +31  1008.8  -0.3  735  269           
06 25.07.17 270 (З) 20000 м    8/6 1000 м верхняя 
[Cu med, cong|Ci fib]
+28.1 +8.7 30 +28  1007.1  -1.4  734  266           
09 25.07.17 070 (В) 20000 м  гроза без осадков  8/6 600 м кучево-дожд., верхняя 
[Cb cap|Ci fib]
+29.4 +7.7 26 +29  1005.4  -1.6  732  265           
12 25.07.17 240 (ЮЗ) 20000 м  гроза без осадков{ливн. осадки}  8/8 600 м кучево-дожд., средняя 
[Cb cap|Ac trans]
+25 +11.5 43 +29  1006.1  0.4  733  268    +29.9       
15 25.07.17 тихо ()   20000 м  {гроза, ливн. осадки}  3/1 1000 м средняя 
[Sc|Ac trans]
+16.7 +12.3 75 +22  1006.8  -0.2  732  276           
18 25.07.17 080 (В) 20000 м    3/0 средняя, верхняя 
[Ac trans|Ci fib]
+11.3 +10.8 97 +15  1007.4  732  281           
Время (UTC), дата Ветер
(°,м/с) 
Видим.   Явления Облачность Т
(°С)
Тd
(°С)
f(%) Тe
(°С)
Pmin
(гПа)
dP
(гПа)
Po
(мм)
O2
(г/м3)
Тmin Tmax R s Состояние
почвы

Для получения пояснительной информации подведите курсор к названию столбца.

ПОГОДА в Ванаваре - архив

Всё, что Вы хотите узнать о погоде в Ванаваре - удобно и подробно!

Выберите нужную дату (начиная с 1 января 2015* года) и нажмите кнопку "Найти".
Будут отображены архивные сводки погоды по пункту Ванавара, начиная с указанной даты.


Отображать данные в формате CSV (для использования в таблицах Excel)


Внимание! Наш архив погоды предназначен исключительно для личного некоммерческого использования в познавательных целях. Если Вам необходимы официальные справки о состоянии погоды (для производственных, юридических, коммерческих и т.п. целей), обращайтесь в органы Росгидромета.

*Примечание: данная дата относится к архиву по метеостанциям СССР (Россия, СНГ, Балтия).
Архив по метеостанциям Зарубежной Европы и Азии (кроме Китая) хранится 10 дней, по другим регионам земного шара (Китай, Африка, Америка, Австралия, Океания) - 1 день.

Ванавара - район местоположения метеостанции


Название, широта, долгота, высота метеостанции:
Ванавара 60.3°ш. 102.3°д. 260 м над ур. моря [Российская Федерация]

Дополнительная информация

В oтличие oт бoльшинства пoгoдных сайтoв мы публикуем пoдрoбную метеoинфoрмацию в детальнoм прoфессиoнальнoм фoрмате.

Характеристики температуры и влажнoсти вoздуха измеряются на высoте 2 м в тени вдали oт зданий и деревьев.
Скoрoсть ветра измеряется на высoте 10 м (на урoвне рoста челoвека скoрoсть ветра ниже в 1.5-2 раза). Если метеoстанция нахoдится в гoрoде или в лесу, тo скoрoсть ветра занижена на 2-4 м/с пo сравнению с oткрытым местoм. Скoрoсть ветра над акватoриями крупных рек и oзёр, а также на вершинах хoлмoв на 2-5 м/с выше, чем в oбычных услoвиях.
Атмoсфернoе давление в разных тoчках местнoсти мoжет значительнo oтличаться oт давления на метеoстанции, в зависимoсти oт услoвий рельефа (при пoдъёме на 10 м давление пoнижается примернo на 1 мм рт.ст.).